CAPE
0 0 0 0 0 0 0 0 0 0 0 0 0 0 0 0 0 0 0 0 0 0 0 0 0 0 2 53 22 10 0 0 0 0 0 0 0 0 0 0 0 0 0 0
0 0 0 0 0 0 0 0 0 0 0 0 0 0 0 0 0 0 0 0 0 0 0 0 0 0 0 11 56 43 4 0 0 0 0 0 0 0 0 0 0 0 0 0
0 0 0 0 0 0 0 0 0 0 0 0 0 0 0 0 0 0 0 0 0 0 0 0 0 0 0 0 37 92 77 8 0 0 0 0 0 0 0 0 0 0 0 0
0 0 0 0 0 0 0 0 0 0 0 0 0 0 0 0 0 0 0 0 0 0 0 0 0 0 0 0 19 113 101 56 1 0 0 0 0 0 0 0 0 0 0 0
0 0 0 0 0 0 0 0 0 0 0 0 0 0 0 0 0 0 0 0 0 0 0 0 0 0 0 0 0 47 151 121 54 1 0 0 0 0 0 0 0 0 0 0
0 0 0 0 0 0 0 0 0 0 0 0 0 0 0 0 0 0 0 0 0 0 0 0 0 0 0 0 0 0 37 162 194 87 11 0 0 0 0 0 0 0 0 0
0 0 0 0 0 0 0 0 0 0 0 0 0 0 0 0 0 0 0 0 0 0 0 0 0 0 0 0 0 0 0 138 306 288 143 45 29 13 0 0 0 0 0 0
0 0 0 0 0 0 0 0 0 0 0 0 0 0 0 0 0 0 0 0 0 0 0 0 0 0 0 0 0 0 0 0 337 465 429 279 215 169 51 39 61 78 24 7
0 0 0 0 0 0 0 0 0 0 0 0 0 0 0 0 0 0 0 0 0 0 0 0 0 0 0 0 0 0 0 0 105 487 499 572 474 367 276 139 111 242 252 195
0 0 0 0 0 0 0 0 0 0 0 0 0 0 0 0 0 0 0 0 0 0 0 0 0 0 0 0 0 0 0 0 0 1 394 677 698 687 592 382 204 161 264 298
0 0 0 0 0 0 0 0 0 0 0 0 0 0 0 0 0 0 0 0 0 0 0 0 0 0 0 0 0 0 0 0 0 0 1 246 703 813 813 656 375 307 198 99
0 0 0 0 0 0 0 0 0 0 0 0 0 0 0 0 0 0 0 0 0 0 0 0 0 0 0 0 0 0 0 0 0 0 0 0 0 85 447 613 607 423 270 139
0 0 0 0 0 0 0 0 0 0 0 0 0 0 0 0 0 0 0 0 0 0 0 0 0 0 0 0 0 0 0 0 0 0 0 0 0 0 0 2 46 84 27 9
0 0 0 0 0 0 0 0 0 0 0 0 0 0 0 0 0 0 0 0 0 0 0 0 0 0 0 0 0 0 0 0 0 0 0 0 0 0 0 0 0 0 2 11
0 0 0 0 0 0 0 0 0 0 0 0 0 0 0 0 0 0 0 0 0 0 0 0 0 0 0 0 0 0 0 0 0 0 0 0 0 0 0 0 0 0 0 0
0 0 0 0 0 0 0 0 0 0 0 0 0 0 0 0 0 0 0 0 0 0 0 0 0 0 0 0 0 0 0 0 0 0 0 0 0 0 0 0 0 0 0 0
0 0 0 0 0 0 0 0 0 0 0 0 0 0 0 0 0 0 0 0 0 0 0 0 0 0 0 0 0 0 0 0 0 0 0 0 0 0 0 0 0 0 0 0
0 0 0 0 0 0 0 0 0 0 0 0 0 0 0 0 0 0 0 0 0 0 0 0 0 0 0 0 0 0 0 0 0 0 0 0 0 0 0 0 0 0 0 0
0 0 0 0 0 0 0 0 0 0 0 0 0 0 0 0 0 0 0 0 0 0 0 0 0 0 0 0 0 0 0 0 0 0 0 0 0 0 0 0 0 0 0 0
0 0 0 0 0 0 0 0 0 0 0 0 0 0 0 0 0 0 0 0 0 0 0 0 0 0 0 0 0 0 0 0 0 0 0 0 0 0 0 0 0 0 0 0
0 0 0 0 0 0 0 0 0 0 0 0 0 0 0 0 0 0 0 0 0 0 0 0 0 0 0 0 0 0 0 0 0 0 0 0 0 0 0 0 0 0 0 0
0 0 0 0 0 0 0 0 0 0 0 0 0 0 0 0 0 0 0 0 0 0 0 0 0 0 0 0 0 0 0 0 0 0 0 0 0 0 0 1 1 0 0 0
0 0 0 0 0 0 0 0 0 0 0 0 0 0 0 0 0 0 0 0 0 0 0 0 0 0 0 0 0 0 0 0 0 0 0 1 0 0 0 0 0 0 0 0
0 0 0 0 0 0 0 0 0 0 0 0 0 0 0 0 0 0 0 0 0 0 0 0 0 1 0 0 0 0 0 1 0 0 1 0 1 1 1 0 0 0 3 1
0 0 0 0 0 0 0 0 0 0 0 0 0 0 0 0 0 0 0 0 0 0 1 0 0 0 0 0 0 0 0 1 2 3 3 3 3 3 4 0 0 0 0 0
0 0 0 0 0 0 0 0 0 0 0 0 0 0 0 0 0 0 0 0 0 0 0 0 0 0 0 0 0 0 0 0 2 3 2 3 2 2 1 1 1 1 0 0
CIN
-0 -0 -0 -0 -0 -0 -0 -0 -0 -0 -0 -0 -0 -0 -0 -0 -0 -0 -0 -0 -0 -0 -0 -0 -0 -0 -102 -561 -617 -717 -0 -0 -0 -0 -0 -0 -0 -0 -0 -0 -0 -0 -0 -0
-0 -0 -0 -0 -0 -0 -0 -0 -0 -0 -0 -0 -0 -0 -0 -0 -0 -0 -0 -0 -0 -0 -0 -0 -0 -0 -0 -419 -542 -592 -575 -0 -0 -0 -0 -0 -0 -0 -0 -0 -0 -0 -0 -0
-0 -0 -0 -0 -0 -0 -0 -0 -0 -0 -0 -0 -0 -0 -0 -0 -0 -0 -0 -0 -0 -0 -0 -0 -0 -0 -0 -0 -507 -516 -570 -551 -0 -0 -0 -0 -0 -0 -0 -0 -0 -0 -0 -0
-0 -0 -0 -0 -0 -0 -0 -0 -0 -0 -0 -0 -0 -0 -0 -0 -0 -0 -0 -0 -0 -0 -0 -0 -0 -0 -0 -0 -473 -482 -505 -578 -114 -0 -0 -0 -0 -0 -0 -0 -0 -0 -0 -0
-0 -0 -0 -0 -0 -0 -0 -0 -0 -0 -0 -0 -0 -0 -0 -0 -0 -0 -0 -0 -0 -0 -0 -0 -0 -0 -0 -0 -0 -420 -463 -499 -572 -45 -0 -0 -0 -0 -0 -0 -0 -0 -0 -0
-0 -0 -0 -0 -0 -0 -0 -0 -0 -0 -0 -0 -0 -0 -0 -0 -0 -0 -0 -0 -0 -0 -0 -0 -0 -0 -0 -0 -0 -0 -353 -468 -528 -596 -739 -0 -0 -0 -0 -0 -0 -0 -0 -0
-0 -0 -0 -0 -0 -0 -0 -0 -0 -0 -0 -0 -0 -0 -0 -0 -0 -0 -0 -0 -0 -0 -0 -0 -0 -0 -0 -0 -0 -0 -0 -442 -466 -516 -602 -674 -733 -708 -0 -0 -0 -0 -0 -0
-0 -0 -0 -0 -0 -0 -0 -0 -0 -0 -0 -0 -0 -0 -0 -0 -0 -0 -0 -0 -0 -0 -0 -0 -0 -0 -0 -0 -0 -0 -0 -0 -392 -416 -475 -560 -618 -645 -694 -700 -680 -687 -713 -650
-0 -0 -0 -0 -0 -0 -0 -0 -0 -0 -0 -0 -0 -0 -0 -0 -0 -0 -0 -0 -0 -0 -0 -0 -0 -0 -0 -0 -0 -0 -0 -0 -471 -256 -275 -304 -327 -389 -478 -569 -613 -548 -556 -627
-0 -0 -0 -0 -0 -0 -0 -0 -0 -0 -0 -0 -0 -0 -0 -0 -0 -0 -0 -0 -0 -0 -0 -0 -0 -0 -0 -0 -0 -0 -0 -0 -0 -24 -223 -168 -170 -209 -254 -285 -374 -442 -425 -339
-0 -0 -0 -0 -0 -0 -0 -0 -0 -0 -0 -0 -0 -0 -0 -0 -0 -0 -0 -0 -0 -0 -0 -0 -0 -0 -0 -0 -0 -0 -0 -0 -0 -0 -65 -290 -99 -85 -103 -105 -153 -197 -266 -126
-0 -0 -0 -0 -0 -0 -0 -0 -0 -0 -0 -0 -0 -0 -0 -0 -0 -0 -0 -0 -0 -0 -0 -0 -0 -0 -0 -0 -0 -0 -0 -0 -0 -0 -0 -0 -29 -385 -120 -98 -100 -136 -140 -85
-0 -0 -0 -0 -0 -0 -0 -0 -0 -0 -0 -0 -0 -0 -0 -0 -0 -0 -0 -0 -0 -0 -0 -0 -0 -0 -0 -0 -0 -0 -0 -0 -0 -0 -0 -0 -0 -0 -0 -310 -357 -187 -106 -13
-0 -0 -0 -0 -0 -0 -0 -0 -0 -0 -0 -0 -0 -0 -0 -0 -0 -0 -0 -0 -0 -0 -0 -0 -0 -0 -0 -0 -0 -0 -0 -0 -0 -0 -0 -0 -0 -0 -0 -0 -0 -0 -12 -43
-0 -0 -0 -0 -0 -0 -0 -0 -0 -0 -0 -0 -0 -0 -0 -0 -0 -0 -0 -0 -0 -0 -0 -0 -0 -0 -0 -0 -0 -0 -0 -0 -0 -0 -0 -0 -0 -0 -0 -0 -0 -0 -0 -0
-0 -0 -0 -0 -0 -0 -0 -0 -0 -0 -0 -0 -0 -0 -0 -0 -0 -0 -0 -0 -0 -0 -0 -0 -0 -0 -0 -0 -0 -0 -0 -0 -0 -0 -0 -0 -0 -0 -0 -0 -0 -0 -0 -0
-0 -0 -0 -0 -0 -0 -0 -0 -0 -0 -0 -0 -0 -0 -0 -0 -0 -0 -0 -0 -0 -0 -0 -0 -0 -0 -0 -0 -0 -0 -0 -0 -0 -0 -0 -0 -0 -0 -0 -0 -0 -0 -0 -0
-0 -0 -0 -0 -0 -0 -0 -0 -0 -0 -0 -0 -0 -0 -0 -0 -0 -0 -0 -0 -0 -0 -0 -0 -0 -0 -0 -0 -0 -0 -0 -0 -0 -0 -0 -0 -0 -0 -0 -0 -0 -0 -0 -0
-0 -0 -0 -0 -0 -0 -0 -0 -0 -0 -0 -0 -0 -0 -0 -0 -0 -0 -0 -0 -0 -0 -0 -0 -0 -0 -0 -0 -0 -0 -0 -0 -0 -0 -0 -0 -0 -0 -0 -0 -0 -0 -0 -0
-0 -0 -0 -0 -0 -0 -0 -0 -0 -0 -0 -0 -0 -0 -0 -0 -0 -0 -0 -0 -0 -0 -0 -0 -0 -0 -0 -0 -0 -0 -0 -0 -0 -0 -0 -0 -0 -0 -0 -0 -0 -0 -0 -0
-0 -0 -0 -0 -0 -0 -0 -0 -0 -0 -0 -0 -0 -0 -0 -0 -0 -0 -0 -0 -0 -0 -0 -0 -0 -0 -0 -0 -0 -0 -0 -0 -0 -0 -0 -0 -0 -0 -0 -0 -0 -0 -0 -0
-0 -0 -0 -0 -0 -0 -0 -0 -0 -0 -0 -0 -0 -0 -0 -0 -0 -0 -0 -0 -0 -0 -0 -0 -0 -0 -0 -0 -0 -0 -0 -0 -0 -0 -0 -0 -0 -0 -0 -0 -0 -0 -0 -0
-0 -0 -0 -0 -0 -0 -0 -0 -0 -0 -0 -0 -0 -0 -0 -0 -0 -0 -0 -0 -0 -0 -0 -0 -0 -0 -0 -0 -0 -0 -0 -0 -0 -0 -0 -0 -0 -1 -0 -0 -0 -0 -0 -0
-0 -0 -0 -0 -0 -0 -0 -0 -0 -0 -0 -0 -0 -0 -0 -0 -0 -0 -0 -0 -0 -0 -0 -0 -0 -0 -0 -0 -0 -0 -0 -0 -1 -0 -0 -0 -0 -0 -1 -0 -0 -0 -0 -0
-0 -0 -0 -0 -0 -0 -0 -0 -0 -0 -0 -0 -0 -0 -0 -0 -0 -0 -0 -0 -0 -0 -0 -0 -0 -0 -0 -0 -0 -0 -0 -0 -0 -0 -0 -0 -0 -0 -0 -0 -0 -0 -0 -0
-0 -0 -0 -0 -0 -0 -0 -0 -0 -0 -0 -0 -0 -0 -0 -0 -0 -0 -0 -0 -0 -0 -1 -0 -0 -0 -0 -0 -0 -0 -0 -0 -0 -0 -0 -0 -0 -0 -0 -0 -0 -1 -1 -1
Wind_Speed
19 18 23 24 23 23 26 31 38 40 39 44 43 54 50 49 48 49 50 47 47 45 42 39 35 32 29 30 30 28 26 24 22 21 19 18 19 16 15 14 15 16 17 18
17 21 22 23 23 26 29 34 37 35 37 43 47 57 51 41 42 45 46 45 45 45 44 42 41 38 31 30 30 31 31 28 26 26 24 25 23 23 21 19 17 18 19 18
17 20 22 23 25 29 30 32 36 40 41 38 43 47 36 45 40 42 41 42 41 42 44 43 40 39 39 35 33 31 31 32 30 28 28 29 29 31 25 22 21 21 19 19
18 20 20 24 27 28 31 29 34 38 41 43 39 51 47 43 46 42 40 37 35 35 37 39 42 41 38 39 38 37 34 33 33 32 31 30 30 31 28 27 26 24 22 21
18 21 23 25 30 29 28 32 34 34 35 37 37 40 43 38 37 34 34 33 33 33 34 35 37 37 38 37 41 42 39 38 36 36 35 34 34 34 36 34 33 29 26 24
18 19 21 23 29 26 31 30 31 30 31 36 34 35 33 34 34 33 33 31 30 30 30 30 31 31 34 34 36 42 43 42 37 35 37 38 36 34 33 35 33 32 29 28
20 19 23 24 28 26 31 31 33 34 35 36 33 29 26 31 31 32 32 30 29 29 29 29 30 30 32 34 35 37 43 43 40 38 36 37 37 37 37 33 33 33 33 32
20 19 23 27 24 24 26 27 28 35 36 35 30 25 22 31 31 33 33 32 31 30 30 30 30 28 30 32 32 33 34 42 41 40 39 37 36 38 41 39 37 35 33 32
19 19 22 24 24 21 24 25 22 24 24 27 25 25 20 32 33 32 36 34 34 32 32 31 32 31 31 31 31 31 29 27 30 36 38 40 41 43 43 45 42 42 40 36
17 19 19 24 21 22 22 21 23 23 27 28 24 23 25 31 32 32 32 33 34 35 34 33 32 32 33 32 32 31 29 26 24 27 32 35 37 40 41 43 46 46 46 44
19 18 19 22 20 22 24 24 21 19 20 21 24 18 18 26 33 33 32 32 35 35 35 34 34 34 32 32 32 32 31 29 27 26 26 29 34 36 39 40 41 43 44 50
17 17 21 20 18 15 19 20 22 22 20 17 14 13 18 25 31 32 32 33 34 33 34 35 35 35 32 32 32 31 31 29 29 27 25 23 23 29 34 37 36 35 39 43
17 18 22 20 17 16 17 18 19 20 15 14 14 13 21 28 32 32 32 32 33 35 34 34 35 34 34 33 32 32 32 31 30 29 26 25 23 22 22 21 25 28 31 36
14 15 16 18 19 18 18 16 19 17 17 16 11 11 15 26 26 29 32 32 34 35 37 37 36 37 37 37 36 34 33 32 32 30 29 27 25 25 25 24 24 25 27 29
15 19 17 15 15 16 15 15 12 12 10 14 15 14 15 17 21 23 27 31 35 38 39 40 41 39 39 39 39 37 38 35 33 33 32 32 31 30 29 30 30 28 27 27
18 20 21 22 21 15 16 15 13 10 10 8 8 11 16 18 20 21 26 31 36 39 41 42 43 43 42 40 40 41 42 42 39 37 38 36 36 36 36 36 35 34 34 32
19 18 20 21 22 26 23 15 12 15 15 15 17 16 18 20 23 21 23 27 31 38 40 42 43 42 43 45 43 44 44 44 43 43 41 39 40 41 40 41 40 39 39 38
17 16 18 21 25 23 18 17 17 15 16 16 17 18 18 19 21 21 20 26 29 35 40 44 45 46 45 44 45 46 45 43 43 45 45 46 46 47 46 46 46 44 43 42
8 13 20 22 21 25 22 16 15 16 16 16 19 18 20 21 22 20 22 24 28 33 39 44 43 46 47 46 45 45 47 48 47 47 47 48 48 49 48 49 49 49 48 49
9 14 18 19 23 22 20 14 15 16 21 18 18 20 22 24 26 26 27 28 28 33 38 40 43 45 46 46 45 45 45 47 49 50 51 51 52 53 52 52 52 51 50 52
17 17 15 18 21 21 17 14 15 21 21 20 21 21 24 25 23 25 27 26 29 33 35 37 38 40 42 43 43 45 46 47 46 47 49 50 51 54 54 55 54 53 54 54
17 16 18 17 20 23 10 15 17 19 21 23 24 24 24 24 23 23 25 29 31 32 33 35 36 39 40 41 44 46 48 49 48 49 50 50 49 50 51 55 57 56 55 56
20 16 20 14 19 17 11 17 18 22 26 24 25 26 23 23 21 24 27 29 29 31 33 33 35 39 40 41 42 46 48 49 50 51 52 53 52 50 50 53 54 58 52 55
20 17 22 23 19 15 16 21 23 23 23 22 20 28 22 21 23 26 28 29 31 31 32 33 36 39 42 43 44 45 47 49 52 54 55 54 54 54 51 49 50 54 53 53
20 17 23 24 22 23 24 22 21 21 22 22 22 26 20 21 24 26 28 30 30 31 33 34 36 38 42 44 46 46 47 49 52 52 52 52 51 52 52 49 48 51 51 50
18 21 21 21 18 18 19 21 24 27 25 23 24 23 19 22 24 26 28 28 30 32 33 35 37 37 42 45 47 47 48 50 52 54 52 51 53 51 49 50 51 42 46 46
Wind_Direction
340 330 318 320 324 319 314 307 303 305 304 298 294 285 290 290 286 284 281 282 282 283 283 284 281 274 265 260 254 249 243 237 239 235 231 228 217 236 232 225 214 206 202 198
322 328 328 327 328 323 318 311 311 312 311 302 295 286 293 297 293 287 284 283 282 282 282 282 281 278 269 259 252 250 245 242 235 240 241 253 253 255 251 248 228 214 210 210
333 327 332 333 330 325 321 319 318 312 314 311 303 293 297 303 304 299 291 285 285 285 283 281 282 283 275 263 255 252 247 243 241 239 249 255 260 262 255 244 231 224 226 222
332 336 336 338 334 332 324 333 328 321 319 309 314 290 299 303 299 303 298 297 293 291 290 286 283 282 282 273 262 256 253 248 246 243 246 243 246 251 249 251 253 251 240 233
324 328 329 329 331 336 331 332 331 330 326 320 317 299 303 317 311 314 313 310 303 299 295 294 290 286 285 284 272 261 255 252 249 245 242 246 251 255 260 261 259 254 251 241
332 339 344 339 334 339 334 339 340 343 339 324 324 313 305 316 314 320 322 322 318 314 310 306 303 299 296 294 286 273 258 252 249 245 244 246 247 250 256 258 256 255 253 252
330 335 334 336 335 343 345 347 338 337 337 332 329 321 321 318 325 325 323 328 332 328 324 323 316 312 310 303 299 289 268 254 251 248 247 245 247 250 253 255 255 256 257 255
334 329 329 330 348 351 356 0 354 339 339 337 344 329 318 331 330 323 323 329 328 334 335 332 330 326 324 319 312 307 291 266 255 253 254 254 251 253 256 256 258 257 256 258
346 335 332 341 350 3 356 1 11 4 3 349 350 346 329 326 325 333 328 325 328 332 333 335 339 339 334 332 331 325 313 298 278 261 260 260 259 259 260 259 260 260 261 261
355 345 345 344 356 2 4 14 5 10 360 353 353 352 343 338 329 329 317 325 317 329 329 328 330 337 338 337 337 339 337 322 306 291 270 263 263 262 263 263 261 261 262 262
356 354 349 352 353 348 355 4 13 16 16 7 356 359 18 355 330 329 326 329 331 329 319 322 325 327 329 333 337 339 340 338 332 316 298 282 271 266 264 265 264 266 265 260
4 359 351 360 358 13 13 12 15 8 8 9 7 5 15 2 336 330 329 334 329 324 324 324 324 324 326 326 330 334 334 337 336 332 326 313 301 284 274 270 271 270 266 262
8 357 347 357 5 7 2 3 7 6 11 1 3 4 3 355 340 331 328 330 335 334 325 319 320 322 322 323 322 326 326 326 329 330 330 325 321 313 308 300 290 286 281 276
4 359 352 349 350 355 348 350 351 357 353 353 330 319 334 346 350 343 329 327 329 330 333 325 320 324 325 324 317 318 321 323 322 322 318 322 319 312 311 309 307 304 298 294
354 345 347 345 344 342 340 340 344 343 340 346 348 340 346 354 354 353 345 332 322 325 326 325 322 319 319 321 317 312 314 315 314 315 313 309 309 310 311 306 304 307 310 309
342 340 342 343 347 354 345 343 347 351 350 338 335 339 8 4 2 358 352 342 332 320 323 324 323 319 316 315 315 316 309 308 312 309 306 304 304 304 302 303 303 300 298 303
337 340 340 340 341 338 338 346 354 354 353 353 351 3 3 358 356 355 352 350 343 331 323 322 323 320 320 322 315 312 308 309 306 302 301 302 301 298 299 298 296 297 297 297
337 339 340 336 336 337 352 357 354 358 360 3 1 2 1 355 353 352 354 349 345 339 331 325 321 320 322 319 322 320 314 306 306 305 301 302 301 297 295 293 292 292 294 295
335 338 335 332 332 330 335 340 344 347 346 357 351 354 354 354 351 349 350 348 344 341 333 326 325 322 320 319 322 320 319 314 309 302 302 299 300 297 297 295 293 291 291 288
341 330 329 331 327 331 341 354 0 357 336 348 352 350 349 349 341 340 345 345 343 341 337 333 329 326 321 320 322 318 316 316 311 312 306 301 297 296 296 293 291 290 289 287
323 320 312 317 321 326 329 341 355 337 341 349 349 346 345 342 338 339 343 346 345 343 342 338 336 332 329 327 325 320 319 318 318 317 314 313 307 297 292 291 291 289 287 286
318 320 320 320 318 321 345 341 333 339 342 338 338 338 337 338 338 342 344 343 344 345 345 342 338 333 333 331 327 322 320 322 322 320 317 316 313 309 304 294 290 287 285 284
315 316 318 314 321 329 324 327 331 333 332 332 334 338 338 340 345 344 343 345 347 346 345 344 340 334 333 330 329 323 320 319 319 319 318 314 314 311 306 300 296 287 290 285
315 314 311 316 318 308 310 316 320 325 328 333 334 338 342 343 345 345 346 346 346 347 347 346 342 336 331 329 328 327 327 326 318 315 314 315 315 310 308 303 297 290 288 286
315 316 309 307 310 312 312 315 325 333 331 334 336 337 340 344 346 347 346 346 348 348 347 346 342 338 332 330 327 326 328 328 326 325 325 323 321 315 310 305 300 293 290 288
307 304 300 307 318 314 317 320 324 324 326 330 333 338 344 346 347 348 347 348 348 348 347 345 343 340 334 331 329 329 330 330 329 327 329 327 321 318 314 307 300 303 295 292